Cloud_Cover
100 96 100 100 100 100 100 100 100 100 100 100 100 100 100 100 100 100 100 100 100 100 100 100 100 100 100 100 100 100 100 100 100 99 97 100 100 100
100 100 100 100 100 100 100 100 100 100 100 100 100 100 100 100 100 100 100 100 100 100 100 100 100 100 100 100 100 100 100 100 100 98 100 100 100 100
100 100 100 100 100 100 100 100 100 100 100 100 100 100 100 100 100 100 100 100 100 100 100 100 100 100 100 100 100 100 100 100 98 99 100 100 100 100
100 100 100 100 100 100 100 100 100 99 100 100 100 100 100 100 100 100 100 100 100 100 100 100 100 100 100 100 100 100 100 100 100 100 100 100 100 100
100 100 100 100 100 100 100 100 100 100 100 100 100 100 100 100 100 100 100 100 100 100 100 100 100 100 100 100 97 68 71 64 44 38 30 10 21 18
94 100 100 100 100 100 100 100 100 100 100 100 100 100 96 87 99 84 78 100 67 52 48 100 97 92 100 67 47 88 100 56 31 65 98 99 99 100
98 100 100 100 100 100 100 100 100 96 94 100 100 96 81 100 96 45 85 99 76 40 76 60 42 48 18 7 5 10 41 72 80 83 93 98 100 100
100 100 100 100 100 94 100 99 83 54 74 66 100 90 91 100 100 100 100 100 100 100 100 91 100 100 97 99 61 14 5 5 56 99 100 100 100 100
70 90 77 43 32 39 16 6 30 79 52 37 34 81 95 99 94 68 89 84 70 57 70 14 16 7 5 1 0 5 5 5 10 84 100 92 100 100
5 5 5 5 5 5 5 5 5 5 5 5 5 5 5 5 5 5 5 5 5 5 5 41 5 5 5 1 2 5 5 5 5 8 16 57 98 100
5 5 0 3 5 35 4 2 2 1 1 1 5 5 43 82 94 45 7 5 12 5 5 7 5 5 5 4 4 1 5 5 5 5 50 96 100 100
4 1 5 3 5 5 4 5 4 0 2 5 0 0 0 4 5 5 21 5 73 56 8 85 94 79 66 5 5 5 5 3 5 5 6 32 99 100
0 0 5 5 5 5 5 0 1 12 5 5 0 4 5 5 5 5 37 90 100 100 99 100 96 100 100 97 10 5 5 5 5 5 5 5 7 66
5 5 5 3 0 4 3 5 15 12 5 3 5 6 8 78 99 100 100 100 100 100 100 100 100 100 100 96 96 5 5 5 5 16 5 5 5 8
5 5 5 3 2 4 0 5 5 0 4 5 5 16 100 100 100 100 100 100 100 91 11 85 99 100 100 99 97 69 16 63 50 35 85 49 58 86
5 5 5 4 4 0 0 4 5 5 5 5 61 100 100 100 100 100 100 100 98 7 5 15 97 93 74 92 96 100 100 100 80 60 79 71 100 100
5 5 4 0 0 0 4 5 5 8 74 96 100 100 100 100 96 100 100 96 96 83 40 5 5 5 8 8 100 100 84 96 92 65 61 99 100 100
5 5 2 0 4 5 5 5 30 97 100 100 100 100 100 100 100 100 100 97 98 83 72 5 5 44 79 19 19 84 60 100 99 65 100 100 100 96
5 5 5 5 5 5 5 81 100 100 100 100 100 100 100 100 100 89 38 69 97 92 59 5 26 95 100 93 7 84 100 63 100 100 100 100 100 100
5 5 5 5 5 18 24 14 98 100 100 100 100 100 100 100 96 99 86 99 98 88 97 94 64 17 100 99 97 10 6 93 100 100 100 100 100 96
5 5 5 5 5 5 6 52 29 90 100 100 100 100 100 100 83 98 92 94 100 96 94 87 12 76 91 95 99 72 99 100 100 100 100 100 100 100
5 5 5 5 5 5 32 67 80 72 74 75 100 100 99 97 90 90 96 100 99 100 96 81 98 96 100 100 95 100 100 90 36 22 100 100 100 100
5 5 5 5 5 36 69 80 76 67 76 74 74 70 94 97 91 100 100 100 100 100 97 100 100 100 100 100 99 100 100 80 88 82 48 100 100 100